Regional Weather Roundup
Issued by NWS

Home | Current Version | Previous Version | Graphics & Text | Print | Product List | Glossary On
Versions: 1 2 3 4 5 6 7 8 9 10 11 12 13 14 15 16 17 18 19 20 21 22 23 24 25 26 27 28 29 30 31 32 33 34 35 36 37 38 39 40 41 42 43 44 45 46 47 48 49 50
829
ASUS45 KCYS 230010
RWRWY

WYOMING REGIONAL WEATHER ROUNDUP
NATIONAL WEATHER SERVICE CHEYENNE WY
500 PM MST THU FEB 22 2018

NOTE:  "FAIR" INDICATES FEW OR NO CLOUDS BELOW 12,000 FEET
WITH NO SIGNIFICANT WEATHER AND/OR OBSTRUCTIONS TO VISIBILITY.

WYZ001-230100-
YELLOWSTONE NATIONAL PARK

CITY           SKY/WX    TMP DP  RH WIND       PRES   REMARKS
LK YELLOWSTONE   N/A     11   2  67 CALM      29.84R
6HR MIN TEMP:   5; 6HR MAX TEMP:  13; 6HR PCP:  0.01;

W YELLOWSTONE  NOT AVBL

$$
WYZ002>013-054>058-071-098>099-230100-
NORTHERN WYOMING

CITY           SKY/WX    TMP DP  RH WIND       PRES   REMARKS
JACKSON        FAIR      17   5  59 S6        29.88S WCI   9
CODY           FAIR      15   5  64 NE9       29.98R WCI   3
GREYBULL       FAIR      11   2  67 CALM      30.04R
6HR MIN TEMP:  -5; 6HR MAX TEMP:  11;

WORLAND        FAIR       9   0  67 NE6       30.01R WCI  -1
6HR MIN TEMP:   4; 6HR MAX TEMP:  14; 6HR PCP: TRACE;

SHERIDAN       CLOUDY    15   3  59 W14       30.05R WCI   0
6HR MIN TEMP:   5; 6HR MAX TEMP:  23;

BUFFALO        FAIR      17   1  49 NW12      30.00R WCI   4
6HR MIN TEMP:  17; 6HR MAX TEMP:  27;

GILLETTE       FAIR      15   3  59 NW7       30.00R WCI   5
6HR MIN TEMP:  13; 6HR MAX TEMP:  25;

HULETT         FAIR      23   1  39 NE6       30.00R WCI  16
NEWCASTLE      FAIR      19  10  68 NW6       29.98S WCI  11

$$
WYZ014>020-022>026-101>103-230100-
CENTRAL WYOMING

CITY           SKY/WX    TMP DP  RH WIND       PRES   REMARKS
BIG PINEY      CLOUDY    18   8  65 S6        29.89R WCI  10
6HR MIN TEMP:  10; 6HR MAX TEMP:  18;

PINEDALE       CLOUDY    18   5  57 S7        29.88S WCI   8
DUBOIS           N/A    N/A N/A N/A MISG        N/A
LANDER         FAIR      14   4  64 CALM      29.93S
6HR MIN TEMP:   7; 6HR MAX TEMP:  15;

RIVERTON       FAIR      11   0  61 CALM      29.95R
6HR MIN TEMP:   3; 6HR MAX TEMP:  13;

CASPER         FAIR      17   8  67 W3        29.94S
6HR MIN TEMP:  11; 6HR MAX TEMP:  20;

DOUGLAS        FAIR      18   8  65 CALM      29.97R
6HR MIN TEMP:  15; 6HR MAX TEMP:  21;


$$
WYZ021-027>030-104>119-230100-
SOUTHERN WYOMING

CITY           SKY/WX    TMP DP  RH WIND       PRES   REMARKS
EVANSTON       LGT SNOW  14   9  80 E9        29.85S WCI   2
6HR MIN TEMP:  10; 6HR MAX TEMP:  17; 6HR PCP: TRACE;

FORT BRIDGER   FAIR       9   6  90 NW3       29.92S
ROCK SPRINGS   MOCLDY    17   8  67 S5        29.89R WCI  10
6HR MIN TEMP:   9; 6HR MAX TEMP:  19;

DIXON          CLOUDY    24  15  67 CALM      29.94R
RAWLINS        CLOUDY    18  13  80 CALM      29.90R
6HR MIN TEMP:   9; 6HR MAX TEMP:  21;

SARATOGA       MOCLDY    19  14  79 S5        29.90R WCI  13
LARAMIE        CLOUDY    17  11  77 N5        29.87R WCI  10
6HR MIN TEMP:  12; 6HR MAX TEMP:  19; 6HR PCP: TRACE;

CHEYENNE       FAIR      23  14  68 NE8       29.91R WCI  14
6HR MIN TEMP:  22; 6HR MAX TEMP:  28;

TORRINGTON     FAIR      28  12  51 NW5       29.98R WCI  23
6HR MIN TEMP:  19; 6HR MAX TEMP:  29;

PINE BLUFFS    FAIR      21  14  73 MISG      29.96R

$$




USA.gov is the U.S. government's official web portal to all federal, state and local government web resources and services.